Weather in Khujand

Tajikistan     40°17′06″N   69°37′08″E
temp.,
°C
wind,
m/s
gust,
m/s
humid.,
%
clouds,
%
prec.,
mm/h
press.,
hPa
HPBL,
m
21 april, wed
wed2123:00+15n2269100 2.6 101250
02:00+14sw3576100 1.1 1013215
05:00+14w6980100 2.1 1014703
08:00+12wnw71083100 1.8 1017887
11:00+11wnw5672100 1.9 1020830
14:00+12w576491 0.0 10201080
17:00+13wsw565798 0.0 10201103
20:00+12sw356699 0.0 1021267
22 april, thu
thu2223:00+11w346926 0.0 1021107
02:00+8w34854 0.0 1023103
05:00+6wnw23880 0.0 102550
08:00+9wnw22720 0.0 1026301
11:00+15e13460 0.0 10251009
14:00+19e45270 0.0 10231500
17:00+20ne23220 0.0 10231487
20:00+15nw33450 0.0 102430
23 april, fri
fri2323:00+13ssw22470 0.0 102412
02:00+12sw00515 0.0 102311
05:00+11e33490 0.0 102313
08:00+15e710460 0.0 1023562
11:00+20e88302 0.0 10221155
14:00+23e44215 0.0 10201570
17:00+23ene12205 0.0 10191589
20:00+18ne22285 0.0 101912
24 april, sat
sat2423:00+16ese22283 0.0 101812
02:00+15e223318 0.0 101813
05:00+14ene453895 0.0 101863
08:00+17e61039100 0.0 1019480
11:00+22e782673 0.0 1018966
14:00+24ene321993 0.0 10171190
17:00+24wnw2120100 0.0 1017808
20:00+19wnw1137100 0.0 101811
25 april, sun
sun2523:00+17w113795 0.0 101811
02:00+15e004117 0.0 101811
05:00+16e3335100 0.0 101919
08:00+19e5832100 0.0 1020342
11:00+24e6722100 0.0 1019898
14:00+27ene4416100 0.0 10171188
17:00+27nnw2218100 0.0 10161299
20:00+22w2229100 0.0 101714